Location: Huppendorf
(49.9333°N, 11.1500°E)
Time: 06:44:58
(UTC+00:00)

USA 229 - Pass Details

Date: 27 February 2020
Orbit: 986 x 1226 km, 63.4° (Epoch: 26 March)

Event Time Altitude Azimuth Distance (km) Brightness Sun altitude
Rises 17:16:54 0° 228° (SW) 3,716 7.6 -4.6°
Reaches altitude 10° 17:19:27 10° 231° (SW) 2,789 6.9 -5.0°
Maximum altitude 17:26:00 74° 316° (NW) 1,091 3.9 -6.0°
Drops below altitude 10° 17:32:59 10° 42° (NE) 2,954 5.6 -7.2°
Sets 17:35:45 0° 44° (NE) 3,950 6.2 -7.6°
